Overview Statistics Trail Chart Weather Telemetry Raw packets
 

This is the latest recevied weather packets stored in our database for station/object KC9DRE. If no packets are shown the sender has not sent any weather packets the latest 10 day(s).

<< 12 13 14 15 16 17 18 >>
Time Temp. Humidity Pressure Rain* Wind** Luminosity Snow
1777814612 11.11° C 55% 1021.1 hPa 0 mm - 371 W/m² -
1777814310 10.56° C 55% 1021 hPa 0 mm - 351 W/m² -
1777814006 10.56° C 56% 1020.9 hPa 0 mm - 334 W/m² -
1777813704 10.56° C 59% 1021 hPa 0 mm - 317 W/m² -
1777813401 10.56° C 59% 1021.1 hPa 0 mm - 303 W/m² -
1777813098 10.56° C 60% 1020.8 hPa 0 mm - 287 W/m² -
1777812796 10° C 63% 1020.8 hPa 0 mm - 253 W/m² -
1777812492 9.44° C 63% 1020.8 hPa 0 mm - 219 W/m² -
1777812190 8.89° C 65% 1020.8 hPa 0 mm - 183 W/m² -
1777811888 8.89° C 68% 1020.8 hPa 0 mm - 165 W/m² -
1777811587 7.78° C 70% 1020.8 hPa 0 mm - 55 W/m² -
1777811281 7.22° C 77% 1020.8 hPa 0 mm - 142 W/m² -
1777810983 6.11° C 78% 1020.6 hPa 0 mm - 131 W/m² -
1777810675 5° C 92% 1020.7 hPa 0 mm - 115 W/m² -
1777810373 4.44° C 98% 1020.5 hPa 0 mm - 99 W/m² -
1777810068 4.44° C 98% 1020.6 hPa 0 mm - 88 W/m² -
1777809780 3.89° C 99% 1020.6 hPa 0 mm - 85 W/m² -
1777809463 2.78° C 99% 1020.5 hPa 0 mm - 97 W/m² -
1777809161 1.67° C 99% 1020.3 hPa 0 mm - 85 W/m² -
1777808859 0.56° C 98% 1020.2 hPa 0 mm - 67 W/m² -
1777808555 0° C 98% 1020.5 hPa 0 mm - 45 W/m² -
1777808252 -0.56° C 98% 1020 hPa 0 mm - 34 W/m² -
1777807951 -1.11° C 98% 1020.2 hPa 0 mm - 27 W/m² -
1777807648 -1.11° C 98% 1020.2 hPa 0 mm - 25 W/m² -
1777807346 -1.11° C 98% 1020.1 hPa 0 mm - 22 W/m² -

* Rain latest hour (hover to see other rain measurements)
** Current wind speed in m/s (hover to see current wind gust speed)